Regional Weather Roundup
Issued by NWS

Home | Current Version | Previous Version | Graphics & Text | Print | Product List | Glossary On
Versions: 1 2 3 4 5 6 7 8 9 10 11 12 13 14 15 16 17 18 19 20 21 22 23 24 25 26 27 28 29 30 31 32 33 34 35 36 37 38 39 40 41 42 43 44 45 46 47 48 49 50
000
ASUS43 KMKX 211311
RWRWI

WISCONSIN REGIONAL WEATHER ROUNDUP
NATIONAL WEATHER SERVICE MILWAUKEE/SULLIVAN WI
800 AM CDT MON AUG 21 2017

NOTE: "FAIR" INDICATES FEW OR NO CLOUDS BELOW 12,000 FEET WITH NO
SIGNIFICANT WEATHER AND/OR OBSTRUCTIONS TO VISIBILITY.

WIZ001-002-006>008-014>016-023>028-211400-
NORTHWEST WISCONSIN

CITY           SKY/WX    TMP DP  RH WIND       PRES   REMARKS
SUPERIOR ARPT    N/A     56  56  97 CALM      30.06F
ASHLAND        CLOUDY    59  56  89 W6        30.07S
HAYWARD        PTSUNNY   56  54  93 NW5       30.09R
SIREN          CLOUDY    61  59  93 CALM      30.07F
CUMBERLAND     CLOUDY    59  55  88 CALM      30.09R
RICE LAKE      CLOUDY    61  60  97 CALM      30.10S
CHETEK         CLOUDY    64  59  84 NE5       30.08S
LADYSMITH      MOSUNNY   63  61  93 CALM      30.11R
EAU CLAIRE     CLOUDY    68  64  87 CALM      30.05S
MENOMONIE      LGT RAIN  67  63  85 CALM      30.06S
NEW RICHMOND   CLOUDY    63  60  91 NE5       30.07R
OSCEOLA        CLOUDY    63  63 100 SE7       30.07F
$$

WIZ003>005-009-010-017-018-211400-
NORTH CENTRAL WISCONSIN

CITY           SKY/WX    TMP DP  RH WIND       PRES   REMARKS
MANITOWISH WTR CLOUDY    56  56 100 CALM      30.09F
ARBOR VITAE    SUNNY     62  60  93 CALM      30.09F
WOODRUFF       SUNNY     62  60  93 CALM      30.09F
RHINELANDER    SUNNY     65  61  87 NE3       30.10S
EAGLE RIVER    MOSUNNY   60  60 100 CALM      30.10S
LAND O LAKES   MOSUNNY   58  58 100 CALM      30.12R
PHILLIPS       CLOUDY    59  59 100 CALM      30.09S
TOMAHAWK         N/A     62  61  97 CALM      30.10R
MEDFORD        CLOUDY    64  62  93 CALM      30.09S
MERRILL        CLOUDY    64  64 100 CALM      30.10R
$$

WIZ029-030-035-036-043>047-211400-
CENTRAL WISCONSIN

CITY           SKY/WX    TMP DP  RH WIND       PRES   REMARKS
WAUSAU         CLOUDY    67  65  93 CALM      30.07R
MOSINEE        FOG       66  66 100 CALM      30.09R VSB 1/2
MARSHFIELD     CLOUDY    67  64  90 CALM      30.07S FOG
STEVENS POINT  LGT RAIN  65  65 100 CALM      30.08R
WAUPACA        CLOUDY    68  67  98 CALM      30.08R
WAUTOMA        CLOUDY    64  63  96 CALM      30.09R
WISC RAPIDS    LGT RAIN  67  67 100 CALM      30.09R FOG
CAMP DOUGLAS   CLOUDY    64  64 100 SE3       30.08R
$$

WIZ011>013-019>022-031-037>040-048>050-211400-
NORTHEAST WISCONSIN

CITY           SKY/WX    TMP DP  RH WIND       PRES   REMARKS
ANTIGO         CLOUDY    64  64  97 CALM      30.09S
SHAWANO        PTSUNNY   68  67  95 CALM      30.06R
OCONTO         CLOUDY    69  66  92 N3        30.05R
STURGEON BAY   MOSUNNY   70  69  97 S3        30.06R
GREEN BAY      CLOUDY    68  68 100 S5        30.06R FOG
MANITOWOC      PTSUNNY   68  66  93 CALM      30.06S
APPLETON       CLOUDY    66  66 100 VRB5      30.06R FOG
CLINTONVILLE   CLOUDY    64  64 100 CALM      30.06R FOG
OSHKOSH        CLOUDY    69  66  90 SW5       30.08R
$$

WIZ032>034-041-042-053>061-211400-
SOUTHWEST WISCONSIN

CITY           SKY/WX    TMP DP  RH WIND       PRES   REMARKS
LA CROSSE      CLOUDY    71  66  84 SE6       30.04S
SPARTA         CLOUDY    61  61 100 CALM      30.07S
VIROQUA        CLOUDY    65  65 100 CALM      30.07S
BOSCOBEL       CLOUDY    65  63  93 CALM      30.08S
PRAIRIE DU CHI CLOUDY    67  64  91 E9        30.03F
PLATTEVILLE    CLOUDY    66  66 100 W7        30.10F
$$

WIZ056-057-062-063-064-067-068-211400-
SOUTH CENTRAL WISCONSIN

CITY           SKY/WX    TMP DP  RH WIND       PRES   REMARKS
REEDSBURG      CLOUDY    64  64 100 CALM      30.07F
BARABOO/DELLS  CLOUDY    65  63  96 CALM      30.09S
LONE ROCK      FOG       64  64 100 S5        30.09R VSB 1/2
MINERAL POINT  CLOUDY    66  66 100 CALM      30.10F FOG
MADISON        CLOUDY    67  65  93 CALM      30.08R FOG
MIDDLETON      CLOUDY    67  67 100 CALM      30.09S
WATERTOWN      CLOUDY    67  67 100 CALM      30.07R
MONROE         CLOUDY    68  66  94 W8        30.09S
JANESVILLE     MOSUNNY   70  70 100 CALM      30.08R
$$

WIZ051-052-058>065-066-070>072-211400-
SOUTHEAST WISCONSIN

CITY           SKY/WX    TMP DP  RH WIND       PRES   REMARKS
MILWAUKEE      CLOUDY    74  69  85 W3        30.06S
WAUKESHA       SUNNY     66  66 100 CALM      30.08S FOG
MILWAUKEE/TIMM SUNNY     70  64  83 CALM      30.07S
RACINE         CLOUDY    73  70  90 SW7       30.08R
KENOSHA        CLOUDY    72  69  90 CALM      30.06S
FOND DU LAC    CLOUDY    68  65  90 W5        30.09R FOG
SHEBOYGAN      CLOUDY    68  68 100 CALM      30.07R FOG
WEST BEND      CLOUDY    64  64 100 CALM      30.06F
JUNEAU         PTSUNNY   65  65  99 CALM      30.09R FOG
$$

LSZ147-162-211400-
LAKE SUPERIOR

STATION/POSITION TIME  TEMP    WIND        PRES    WAVE
                       AIR SEA DIR/SP/G            HT/PER
                 (UTC) (F)     (DEG/KT/KT) (MB)    (FT/S)
W MID LAKE BUOY  1250   61 59  280/  6/  8 1017.5R   0
DEVILS ISLAND    1300   62     250/  5/  6 1017.9R
SAXON HARBOR     1240   60     210/  5/  7 1017.3F
$$

LMZ867-665-643>646-211400-
LAKE MICHIGAN

STATION/POSITION TIME  TEMP    WIND        PRES    WAVE
                       AIR SEA DIR/SP/G            HT/PER
                 (UTC) (F)     (DEG/KT/KT) (MB)    (FT/S)
S GREEN BAY BUOY 1300   70 71  290/  2/  4 1017.3
N MID LAKE BUOY  1250   68 67  220/  4/  4 1017.9R   2/ 5
NORTHPORT PIER   1240   72     310/  5/  6 1017.3R
KEWAUNEE LAKESHO 1248   69     300/  1/  3 1016.9S
SHEBOYGAN LAKESH 1300   72     270/  4/  5 1017.4R
PORT WASHINGTON  1230   71      CALM  /  1 1018.6R
ATWATER BUOY     1209   69 70  300/  2/  2 1018.1R
MILWAUKEE LAKESH 1240   72     300/  4/  4   N/A
S MID LAKE BUOY  1250   72 71  220/  6/  6 1017.8R   1/ 3
KENOSHA   LAKESH 1300   74     260/  5/  6 1017.6
$$

TC  - TEMPERATURE IN CELSIUS
VSB - VISIBILITY IN STATUTE MILES
WCI - WIND CHILL INDEX
HX  - HEAT INDEX




USA.gov is the U.S. government's official web portal to all federal, state and local government web resources and services.